Regional Weather Roundup
Issued by NWS Charleston, SC

Current Version | Previous Version | Graphics & Text | Print | Product List | Glossary On
Versions: 1 2 3 4 5 6 7 8 9 10 11 12 13 14 15 16 17 18 19 20 21 22 23 24 25 26 27 28 29 30 31 32 33 34 35 36 37 38 39 40 41 42 43 44 45 46 47 48 49 50
000 ASUS42 KCHS 302328 RWRCHS REGIONAL WEATHER ROUNDUP NATIONAL WEATHER SERVICE CHARLESTON SC 700 PM EDT MON MAY 30 2016 NOTE: "FAIR" INDICATES FEW OR NO CLOUDS BELOW 12,000 FEET WITH NO SIGNIFICANT WEATHER AND/OR OBSTRUCTIONS TO VISIBILITY. NOT ALL STATIONS ARE QUALITY CONTROLLED. USE DATA WITH CAUTION... ESPECIALLY DEWPOINT OBSERVATIONS. SCZ027-030-031-034>040-042>050-310000- ...SOUTHEAST SOUTH CAROLINA... CITY SKY/WX TMP DP RH WIND PRES REMARKS N CHARLESTON CLOUDY 74 71 91 NW7 29.86S WATERFRONT PRK N/A 75 72 90 VRB3 29.84S MOUNT PLEASANT CLOUDY 73 72 94 CALM 29.86R JOHNS ISLAND DRIZZLE 75 72 88 NW8 29.87R PINOPOLIS N/A 73 72 94 NW13 29.79 MONCKS CORNER CLOUDY 68 66 94 N6 29.86S SUMMERVILLE LGT RAIN 72 72 100 NW8 29.88R BEAUFORT MCAS CLOUDY 79 71 76 N3 29.88S BEAUFORT ARPT MOCLDY 79 70 73 CALM 29.88S THUNDER HILTON HEAD IS CLOUDY 77 72 83 NW21G29 29.92R VSB 1 WALTERBORO CLOUDY 73 73 100 N3 29.89S ALLENDALE MOCLDY 77 73 88 E3 29.88S ...SOUTHERN MIDLANDS AND PEE DEE... CITY SKY/WX TMP DP RH WIND PRES REMARKS GEORGETOWN CLOUDY 73 70 88 SE5 29.87S KINGSTREE CLOUDY 72 68 88 NW6 29.88S ORANGEBURG PTSUNNY 77 71 82 NE7 29.89S BARNWELL CLOUDY 84 75 74 E7 29.88S HX 92 AIKEN FAIR 82 63 51 NW8 29.93S MANNING RAIN 70 70 100 N6 29.88R COLUMBIA CLOUDY 82 69 64 E9 29.88S SUMTER CLOUDY 74 71 88 N6 29.87R FLORENCE PTSUNNY 74 70 87 N9 29.88S MYRTLE BEACH PTSUNNY 75 64 69 SE8 29.90R N MYRTLE BEACH PTSUNNY 76 69 79 SE5 29.88R $$ GAZ063-065-086>088-099>101-113>116-118-119-134>141-150-310000- ...SOUTHEAST GEORGIA... CITY SKY/WX TMP DP RH WIND PRES REMARKS SAVANNAH ARPT MOSUNNY 86 66 51 NW9 29.88S HUNTER AAF SUNNY 86 70 58 NW5 29.86R HX 91 FORT STEWART SUNNY 88 64 44 NW7 29.86R STATESBORO SUNNY 86 69 56 N6 29.88S SYLVANIA CLOUDY 87 68 53 NW6 29.89S HX 90 CLAXTON FAIR 88 68 52 W5 29.89S HX 91 ...CSRA...CENTRAL AND FAR SOUTHEAST GEORGIA... CITY SKY/WX TMP DP RH WIND PRES REMARKS THOMSON SUNNY 89 68 51 CALM 29.94S HX 92 AUGUSTA-BUSH SUNNY 88 63 43 N7 29.88S AUGUSTA-DANIEL SUNNY 89 63 41 N7 29.90F HX 90 SWAINSBORO FAIR 88 63 42 N3 29.90S VIDALIA SUNNY 88 59 37 N7 29.90R EASTMAN FAIR 91 59 34 CALM 29.92S HX 90 HAZLEHURST FAIR 92 58 32 CALM 29.89R HX 90 ALMA SUNNY 90 60 36 NW7 29.89S WAYCROSS SUNNY 90 62 38 N7 29.89R HX 91 JESUP FAIR 86 59 39 N3 29.89R BAXLEY FAIR 91 61 35 NW7 29.89R HX 91 BRUNSWICK SUNNY 93 64 38 N5 29.89R HX 95 SAINT SIMONS SUNNY 83 73 72 SE8 29.88R $$ SCZ027-028-034-036>038-045-046-048>050-GAZ119-141-310000- ...LAKE AND SUPPLEMENTAL COASTAL OBSERVATIONS... STATION/POSITION TIME TEMP WIND PRES WAVE SWELL AIR SEA DIR/SP/G HT/PER HT/PER/DIR (UTC) (F) (DEG/KT/KT) (MB) (FT/S) (FT/S/D) WINYAH BAY 2245 74 150/ 7 1010.0S LAKE MURRAY 2200 83 360/ 2/ 6 1011.5R ACE BASIN NERRS 2200 81 330/ 4 1012.0S FORT PULASKI 2200 79 76 N/A SAPELO ISLAND 2300 86 130/ 6 1012.0S $$ ANZ835-935-AMZ111-154-330-350-352-354-370-450-454-472-310000- ...C-MAN AND BUOY OBSERVATIONS... STATION/POSITION TIME TEMP WIND PRES WAVE SWELL AIR SEA DIR/SP/G HT/PER HT/PER/DIR (UTC) (F) (DEG/KT/KT) (MB) (FT/S) (FT/S/D) BUOY 41004 2250 75 77 220/ 12/ 14 1011.0F 4/ 8 3/ 8 BUOY 41008 2250 79 79 160/ 6/ 6 1012.1R 2/ 8 2/100/ 8 FOLLY BEACH CMAN 2300 73 290/ 4/ 7 1011.6R CAPERS NEARSHORE 2308 74 77 360/ 4/ 8 1011.1R FRIPP NEARSHORE 2308 78 76 360/ 6/ 10 1011.4R STATION/POSITION TIME TEMP WIND PRES WAVE SWELL AIR SEA DIR/SP/G HT/PER HT/PER/DIR (UTC) (F) (DEG/KT/KT) (MB) (FT/S) (FT/S/D) 5E ST. MARYS GA 2301 80 N/A 2/ 9 FRYING PAN BUOY 2300 77 78 190/ 6/ 8 1011.8R BUOY 41025 2250 77 80 170/ 16/ 19 1013.4F 6/ 8 3/190/ 8 CAPE LOOKOUT NC 2300 76 CALM / 1 1013.0R BUOY 41002 2250 76 76 170/ 12/ 12 1014.8R 5/ 8 5/110/ 8 BUOY 41010 2220 80 80 190/ 8/ 10 1014.1F ST AUGUSTINE FL 2300 81 82 160/ 15/ 15 1013.4R $$

USA.gov is the U.S. government's official web portal to all federal, state and local government web resources and services.